Location: Siratepeler Tepesi
(39.1042°N, 32.0781°E)
Time: 05:05:28
(UTC+00:00)

SPOT 3 Rocket - Pass Details

Date: 11 April 2026
Orbit: 774 x 791 km, 98.5° (Epoch: 9 May)

Event Time Altitude Azimuth Distance (km) Brightness Sun altitude
Exits shadow 19:21:40 51° 354° (N) 987 4.2 -30.9°
Drops below altitude 10° 19:25:31 10° 348° (NNW) 2,356 6.7 -31.4°
Sets 19:27:50 0° 348° (NNW) 3,286 7.6 -31.7°
